| time (UTC) | temp C | wind direction | speed KPH | gust KPH | rain 1hr cm | rain 24hr cm | rain mn cm | humidity % | barometer mb |
| 20260504141236 | 17 | 214 | 1.6 | 12.9 | 0.00 | 0.05 | 0.00 | 88 | 999.6 |
| 20260504130734 | 17 | 235 | 0.0 | 4.8 | 0.00 | 0.05 | 0.05 | 86 | 999.4 |
| 20260504081722 | 18 | 0 | 0.0 | 3.2 | 0.00 | 0.05 | 0.05 | 88 | 998.4 |
| 20260504080724 | 18 | 148 | 1.6 | 4.8 | 0.00 | 0.05 | 0.05 | 88 | 998.3 |
| 20260504050714 | 19 | 88 | 1.6 | 6.4 | 0.00 | 0.05 | 0.05 | 86 | 998.1 |
| 20260504045712 | 18 | 355 | 0.0 | 4.8 | 0.00 | 0.05 | 0.05 | 88 | 998.1 |
| 20260504044710 | 18 | 55 | 0.0 | 4.8 | 0.00 | 0.05 | 0.05 | 88 | 998.1 |
| 20260504043724 | 18 | 32 | 0.0 | 4.8 | 0.00 | 0.05 | 0.05 | 89 | 998.2 |
| 20260504043712 | 18 | 38 | 0.0 | 4.8 | 0.00 | 0.05 | 0.05 | 89 | 998.1 |
| 20260504042212 | 18 | 86 | 0.0 | 4.8 | 0.00 | 0.05 | 0.05 | 89 | 998.2 |
| 20260504040720 | 18 | 61 | 1.6 | 8.0 | 0.00 | 0.05 | 0.05 | 89 | 998.4 |
| 20260504035708 | 18 | 36 | 0.0 | 8.0 | 0.00 | 0.05 | 0.05 | 90 | 998.5 |
| 20260504035207 | 18 | 355 | 1.6 | 4.8 | 0.00 | 0.05 | 0.05 | 90 | 998.5 |
| 20260504033706 | 18 | 318 | 0.0 | 4.8 | 0.00 | 0.05 | 0.05 | 91 | 998.7 |
| 20260504032706 | 18 | 290 | 0.0 | 3.2 | 0.00 | 0.05 | 0.05 | 90 | 999.0 |
| 20260504032209 | 18 | 349 | 0.0 | 3.2 | 0.03 | 0.05 | 0.05 | 90 | 999.2 |
| 20260504030707 | 18 | 79 | 0.0 | 4.8 | 0.03 | 0.05 | 0.05 | 90 | 999.3 |
| 20260504025721 | 18 | 337 | 0.0 | 6.4 | 0.05 | 0.05 | 0.05 | 90 | 999.6 |
| 20260504024703 | 18 | 340 | 0.0 | 3.2 | 0.05 | 0.05 | 0.05 | 90 | 999.8 |
| 20260504024202 | 18 | 321 | 0.0 | 3.2 | 0.05 | 0.05 | 0.05 | 89 | 1000.0 |
| 20260504022700 | 18 | 321 | 0.0 | 0.0 | 0.05 | 0.05 | 0.05 | 88 | 1000.2 |
| 20260504021702 | 18 | 321 | 0.0 | 0.0 | 0.05 | 0.05 | 0.05 | 86 | 1000.4 |
| 20260504020704 | 19 | 321 | 1.6 | 4.8 | 0.05 | 0.05 | 0.05 | 84 | 1000.6 |
| 20260504020202 | 19 | 351 | 1.6 | 8.0 | 0.03 | 0.03 | 0.03 | 83 | 1000.8 |
| 20260504014700 | 20 | 311 | 1.6 | 11.3 | 0.00 | 0.00 | 0.00 | 83 | 1000.9 |
| 20260504013702 | 20 | 281 | 0.0 | 4.8 | 0.00 | 0.00 | 0.00 | 84 | 1000.9 |
| 20260504012701 | 20 | 302 | 1.6 | 3.2 | 0.00 | 0.00 | 0.00 | 84 | 1001.1 |
| 20260504011656 | 20 | 299 | 0.0 | 6.4 | 0.00 | 0.00 | 0.00 | 83 | 1001.2 |
| 20260504010708 | 20 | 355 | 0.0 | 3.2 | 0.00 | 0.00 | 0.00 | 83 | 1001.2 |
| 20260504005655 | 20 | 20 | 1.6 | 4.8 | 0.00 | 0.00 | 0.00 | 82 | 1001.3 |
| 20260504004654 | 20 | 295 | 0.0 | 4.8 | 0.00 | 0.00 | 0.00 | 83 | 1001.1 |
| 20260504003656 | 20 | 348 | 0.0 | 4.8 | 0.00 | 0.00 | 0.00 | 83 | 1001.0 |
| 20260504002655 | 19 | 335 | 0.0 | 3.2 | 0.00 | 0.00 | 0.00 | 86 | 1001.0 |
| 20260504001654 | 19 | 196 | 0.0 | 1.6 | 0.00 | 0.00 | 0.00 | 86 | 1001.0 |
| 20260504000706 | 18 | 196 | 0.0 | 1.6 | 0.00 | 0.00 | 0.00 | 88 | 1001.2 |
| 20260504000654 | 18 | 196 | 1.6 | 3.2 | 0.00 | 0.00 | 0.00 | 87 | 1001.1 |
| 20260503235152 | 18 | 196 | 1.6 | 6.4 | 0.00 | 0.00 | 0.00 | 88 | 1001.2 |
| 20260503233650 | 18 | 209 | 0.0 | 4.8 | 0.00 | 0.00 | 0.00 | 88 | 1001.3 |
| 20260503232648 | 18 | 340 | 0.0 | 3.2 | 0.00 | 0.00 | 0.00 | 89 | 1001.3 |
| 20260503231648 | 18 | 12 | 0.0 | 3.2 | 0.00 | 0.00 | 0.00 | 90 | 1001.3 |
| 20260503230648 | 17 | 84 | 0.0 | 3.2 | 0.00 | 0.00 | 0.00 | 91 | 1001.3 |
| 20260503225649 | 17 | 36 | 0.0 | 1.6 | 0.00 | 0.00 | 0.00 | 91 | 1001.2 |
| 20260503224650 | 17 | 0 | 0.0 | 1.6 | 0.00 | 0.00 | 0.00 | 92 | 1001.0 |
| 20260503223647 | 17 | 355 | 0.0 | 1.6 | 0.00 | 0.00 | 0.00 | 93 | 1000.8 |
| 20260503222649 | 16 | 342 | 0.0 | 4.8 | 0.00 | 0.00 | 0.00 | 94 | 1000.6 |
| 20260503222152 | 16 | 61 | 0.0 | 3.2 | 0.00 | 0.00 | 0.00 | 95 | 1000.5 |
| 20260503221151 | 16 | 61 | 0.0 | 0.0 | 0.00 | 0.00 | 0.00 | 95 | 1000.5 |
| 20260503215648 | 16 | 61 | 0.0 | 1.6 | 0.00 | 0.00 | 0.00 | 95 | 1000.5 |
| 20260503214648 | 16 | 310 | 0.0 | 1.6 | 0.00 | 0.00 | 0.00 | 95 | 1000.4 |
| 20260503213647 | 16 | 329 | 0.0 | 3.2 | 0.00 | 0.00 | 0.00 | 95 | 1000.3 |
| 20260503212648 | 15 | 35 | 0.0 | 1.6 | 0.00 | 0.00 | 0.00 | 95 | 1000.3 |
| 20260503211648 | 15 | 35 | 0.0 | 0.0 | 0.00 | 0.00 | 0.00 | 95 | 1000.3 |
| 20260503210650 | 15 | 35 | 0.0 | 0.0 | 0.00 | 0.00 | 0.00 | 94 | 1000.1 |
| 20260503205650 | 15 | 35 | 0.0 | 0.0 | 0.00 | 0.00 | 0.00 | 94 | 1000.1 |
| 20260503204649 | 15 | 35 | 0.0 | 0.0 | 0.00 | 0.00 | 0.00 | 94 | 1000.0 |
| 20260503203649 | 15 | 35 | 0.0 | 0.0 | 0.00 | 0.00 | 0.00 | 94 | 999.9 |
| 20260503202650 | 15 | 35 | 0.0 | 3.2 | 0.00 | 0.00 | 0.00 | 94 | 999.8 |
| 20260503201647 | 15 | 35 | 0.0 | 0.0 | 0.00 | 0.00 | 0.00 | 94 | 999.6 |
| 20260503200646 | 15 | 35 | 0.0 | 0.0 | 0.00 | 0.00 | 0.00 | 94 | 999.6 |
| 20260503195647 | 15 | 35 | 0.0 | 0.0 | 0.00 | 0.00 | 0.00 | 93 | 999.5 |
| 20260503194641 | 15 | 35 | 0.0 | 0.0 | 0.00 | 0.00 | 0.00 | 93 | 999.4 |
| 20260503193639 | 15 | 35 | 0.0 | 0.0 | 0.00 | 0.00 | 0.00 | 93 | 999.3 |
| 20260503192641 | 15 | 35 | 0.0 | 0.0 | 0.00 | 0.00 | 0.00 | 93 | 999.3 |
| 20260503191640 | 15 | 35 | 0.0 | 0.0 | 0.00 | 0.00 | 0.00 | 93 | 999.3 |
| 20260503190640 | 15 | 35 | 0.0 | 1.6 | 0.00 | 0.00 | 0.00 | 93 | 999.3 |
| 20260503185639 | 15 | 35 | 0.0 | 1.6 | 0.00 | 0.00 | 0.00 | 93 | 999.3 |
| 20260503184635 | 15 | 35 | 0.0 | 0.0 | 0.00 | 0.00 | 0.00 | 92 | 999.3 |
| 20260503183636 | 15 | 35 | 0.0 | 1.6 | 0.00 | 0.00 | 0.00 | 92 | 999.3 |
| 20260503182636 | 15 | 35 | 0.0 | 1.6 | 0.00 | 0.00 | 0.00 | 92 | 999.3 |
| 20260503181631 | 15 | 35 | 0.0 | 1.6 | 0.00 | 0.00 | 0.00 | 92 | 999.1 |
| 20260503180629 | 15 | 35 | 0.0 | 1.6 | 0.00 | 0.00 | 0.00 | 92 | 999.2 |
| 20260503175626 | 15 | 35 | 0.0 | 1.6 | 0.00 | 0.00 | 0.00 | 92 | 999.3 |
| 20260503174626 | 15 | 35 | 0.0 | 3.2 | 0.00 | 0.00 | 0.00 | 91 | 999.3 |
| 20260503173628 | 15 | 52 | 0.0 | 1.6 | 0.00 | 0.00 | 0.00 | 91 | 999.3 |
| 20260503172628 | 15 | 52 | 0.0 | 3.2 | 0.00 | 0.00 | 0.00 | 91 | 999.4 |
| 20260503171626 | 16 | 22 | 0.0 | 1.6 | 0.00 | 0.00 | 0.00 | 91 | 999.6 |
| 20260503170629 | 16 | 22 | 0.0 | 0.0 | 0.00 | 0.00 | 0.00 | 90 | 999.6 |
| 20260503150621 | 17 | 151 | 0.0 | 9.7 | 0.00 | 0.00 | 0.00 | 90 | 1000.4 |